Погода в Сальтильо

Мексика     25°25′50″N   100°59′48″W
темп.,
°C
ветер,
м/с
пор.,
м/с
влажн.,
%
обл.,
%
осадки,
мм/ч
давл.,
гПа
погр.,
м
13 мая, чт
чт1301:00+14ссв348426 0.1 1022367
04:00+14ссв338660 0.1 1022391
07:00+14ссв228236 0.1 1023372
10:00+16ссв336836 0.1 1023728
13:00+19с536228 0.1 1022887
16:00+19ссв546155 0.1 1020884
19:00+17ссв5571100 0.2 1019696
22:00+15ссв337957 0.2 1021441
14 мая, пт
пт1401:00+15св2280100 0.6 1021325
04:00+15ссв1177100 1.8 1020292
07:00+15всв2279100 2.6 1020253
10:00+17ссв226941 0.0 1021717
13:00+22с4451100 0.1 10171520
16:00+23с4353100 0.6 10161215
19:00+20ссв446731 1.2 1015783
22:00+18св227773 1.4 1017349
15 мая, сб
сб1501:00+18в2371100 1.5 1016344
04:00+18юв2372100 0.3 1015299
07:00+17с1185100 0.3 1017184
10:00+19з12672 2.3 1018598
13:00+25сз124094 2.4 10141621
16:00+27с863755 0.0 10112455
19:00+25св444718 1.7 10111210
22:00+21всв23611 0.8 1013391
16 мая, вс
вс1601:00+20ююв235828 1.3 1014198
04:00+19ююв22595 0.4 101373
07:00+18ююв226648 0.4 101492
10:00+22ю1253100 0.0 1014496
13:00+27ссз223626 0.0 10121688
16:00+29с753432 0.0 10102099
19:00+27с4436100 0.1 10091568
22:00+23вюв235480 0.9 1012285
17 мая, пн
пн1701:00+22ююв225291 1.1 101395
04:00+21ююв2251100 0.0 101163
07:00+21ююв225385 0.0 101259
10:00+25ююв2339100 0.0 1012444
13:00+30ссз122069 0.0 10102991
16:00+31ссв652139 0.0 10073055
19:00+24ссв223834 1.1 1009438
22:00+23юв244554 0.2 1010470